Weather in Khalilovo

Russia / Orenburg Oblast     51°23′57″N   58°07′36″E
temp.,
°C
wind,
m/s
gust,
m/s
humid.,
%
clouds,
%
prec.,
mm/h
press.,
hPa
HPBL,
m
25 february, thu
thu2523:00−23nnw3596100 0.1 1022126
02:00−23nw4590100 0.1 102489
05:00−25nw348673 0.1 102642
08:00−26wnw23870 0.0 103021
11:00−23w23870 0.0 1032100
14:00−19w22810 0.0 1033212
17:00−20sw34910 0.0 103481
20:00−27wsw34910 0.0 103529
26 february, fri
fri2623:00−28wsw23870 0.0 103520
02:00−29wsw239119 0.0 103420
05:00−28sw239231 0.0 103421
08:00−25s3492100 0.0 103194
11:00−22sse3597100 0.1 1031194
14:00−17sse4694100 0.1 1028414
17:00−15sse5794100 0.3 1026517
20:00−16sse5996100 0.3 1025385
27 february, sat
sat2723:00−15sse5996100 0.8 1023410
02:00−16sse5109698 0.3 1021306
05:00−14sse6119599 0.6 1018384
08:00−12sse61195100 0.6 1014415
11:00−7s81395100 1.8 1010628
14:00−4ssw81294100 3.1 1007750
17:00−2ssw61295100 3.3 1005545
20:00+1wsw51199100 0.4 1004469
28 february, sun
sun2823:00−1sw4998100 0.5 1004321
02:000wsw5996100 0.2 1003501
05:000wsw61197100 0.6 1003614
08:00−3sw499597 0.3 1003226
11:00−1wsw6109294 0.5 1004705
14:00−1wsw7108889 0.1 1005905
17:00−1sw5109494 0.3 1006598
20:00−4sw4109776 0.1 1007262
1 march, mon
mon123:00−3sw6129584 0.2 1008466
02:00−9wsw5109388 0.1 1010272
05:00−15wsw599468 0.1 1012197
08:00−17wsw499535 0.0 1014152
11:00−14w479222 0.0 1015250
14:00−12w469380 0.0 1016250
17:00−12w469375 0.0 1017192
20:00−16w479453 0.0 1018120